Time,TemperatureF,DewpointF,PressureIn,WindDirection,WindDirectionDegrees,WindSpeedMPH,WindSpeedGustMPH,Humidity,HourlyPrecipIn,Conditions,Clouds,dailyrainin,SoftwareType,DateUTC
2013-05-30 00:01:00,76.1,68.8,29.71,East,90,6.9,9.2,78,0.00,,,0.00,WUHU216HW,2013-05-30 05:01:00,
2013-05-30 00:06:00,76.1,68.8,29.71,SSE,158,8.5,9.2,78,0.00,,,0.00,WUHU216HW,2013-05-30 05:06:00,
2013-05-30 00:11:00,76.0,68.7,29.71,SE,135,3.1,9.4,78,0.00,,,0.00,WUHU216HW,2013-05-30 05:11:00,
2013-05-30 00:16:00,76.0,69.0,29.72,ESE,113,5.6,10.3,79,0.00,,,0.00,WUHU216HW,2013-05-30 05:16:00,
2013-05-30 00:21:00,75.8,68.9,29.72,ESE,113,9.2,10.3,79,0.00,,,0.00,WUHU216HW,2013-05-30 05:21:00,
2013-05-30 00:26:00,75.8,68.9,29.72,SSE,158,10.1,10.1,79,0.00,,,0.00,WUHU216HW,2013-05-30 05:26:00,
2013-05-30 00:31:00,75.8,68.9,29.72,SE,135,5.4,10.1,79,0.00,,,0.00,WUHU216HW,2013-05-30 05:31:00,
2013-05-30 00:36:00,75.6,68.7,29.71,SE,135,6.7,8.9,79,0.00,,,0.00,WUHU216HW,2013-05-30 05:36:00,
2013-05-30 00:41:00,75.4,69.0,29.72,SE,135,6.9,8.9,80,0.00,,,0.00,WUHU216HW,2013-05-30 05:41:00,
2013-05-30 00:46:00,75.4,69.0,29.72,SE,135,7.6,8.7,80,0.00,,,0.00,WUHU216HW,2013-05-30 05:46:00,
2013-05-30 00:51:00,75.2,68.8,29.72,SE,135,5.1,8.7,80,0.00,,,0.00,WUHU216HW,2013-05-30 05:51:00,
2013-05-30 00:56:00,75.1,69.0,29.71,SE,135,5.8,8.7,81,0.00,,,0.00,WUHU216HW,2013-05-30 05:56:00,
2013-05-30 01:01:00,75.1,69.0,29.71,SSW,203,10.5,10.5,81,0.00,,,0.00,WUHU216HW,2013-05-30 06:01:00,
2013-05-30 01:06:00,74.9,68.8,29.71,SE,135,5.1,10.5,81,0.00,,,0.00,WUHU216HW,2013-05-30 06:06:00,
2013-05-30 01:11:00,74.9,68.8,29.71,SSE,158,5.4,6.7,81,0.00,,,0.00,WUHU216HW,2013-05-30 06:11:00,
2013-05-30 01:16:00,74.9,69.1,29.71,SSE,158,2.2,8.5,82,0.00,,,0.00,WUHU216HW,2013-05-30 06:16:00,
2013-05-30 01:21:00,74.7,69.0,29.71,SE,135,4.0,8.5,82,0.00,,,0.00,WUHU216HW,2013-05-30 06:21:00,
2013-05-30 01:26:00,74.7,69.0,29.71,SSE,158,4.0,8.9,82,0.00,,,0.00,WUHU216HW,2013-05-30 06:26:00,
2013-05-30 01:31:00,74.5,69.0,29.71,ESE,113,4.7,8.9,83,0.00,,,0.00,WUHU216HW,2013-05-30 06:31:00,
2013-05-30 01:36:00,74.5,69.0,29.71,SSE,158,3.4,7.8,83,0.00,,,0.00,WUHU216HW,2013-05-30 06:36:00,
2013-05-30 01:41:00,74.5,69.0,29.71,ESE,113,3.4,8.1,83,0.00,,,0.00,WUHU216HW,2013-05-30 06:41:00,
2013-05-30 01:46:00,74.5,69.0,29.71,SSE,158,4.0,8.5,83,0.00,,,0.00,WUHU216HW,2013-05-30 06:46:00,
2013-05-30 01:51:00,74.5,69.0,29.70,SE,135,3.6,8.5,83,0.00,,,0.00,WUHU216HW,2013-05-30 06:51:00,
2013-05-30 01:56:00,74.3,69.2,29.71,SE,135,5.4,6.5,84,0.00,,,0.00,WUHU216HW,2013-05-30 06:56:00,
2013-05-30 02:01:00,74.5,69.0,29.71,SE,135,6.7,6.9,83,0.00,,,0.00,WUHU216HW,2013-05-30 07:01:00,
2013-05-30 02:06:00,74.7,69.2,29.71,SE,135,7.8,7.8,83,0.00,,,0.00,WUHU216HW,2013-05-30 07:06:00,
2013-05-30 02:11:00,74.7,69.2,29.71,ESE,113,6.7,7.8,83,0.00,,,0.00,WUHU216HW,2013-05-30 07:11:00,
2013-05-30 02:16:00,74.7,69.2,29.70,SSE,158,5.1,7.6,83,0.00,,,0.00,WUHU216HW,2013-05-30 07:16:00,
2013-05-30 02:21:00,74.9,69.4,29.70,SSE,158,4.7,8.3,83,0.00,,,0.00,WUHU216HW,2013-05-30 07:21:00,
2013-05-30 02:26:00,74.9,69.4,29.70,SE,135,10.1,10.1,83,0.00,,,0.00,WUHU216HW,2013-05-30 07:26:00,
2013-05-30 02:31:00,74.9,69.4,29.70,SE,135,8.1,10.1,83,0.00,,,0.00,WUHU216HW,2013-05-30 07:31:00,
2013-05-30 02:36:00,74.9,69.4,29.70,ESE,113,8.9,9.8,83,0.00,,,0.00,WUHU216HW,2013-05-30 07:36:00,
2013-05-30 02:41:00,74.9,69.4,29.70,ESE,113,6.3,9.8,83,0.00,,,0.00,WUHU216HW,2013-05-30 07:41:00,
2013-05-30 02:46:00,74.9,69.4,29.70,SE,135,4.5,8.3,83,0.00,,,0.00,WUHU216HW,2013-05-30 07:46:00,
2013-05-30 02:51:00,75.1,69.6,29.70,SE,135,3.6,8.3,83,0.00,,,0.00,WUHU216HW,2013-05-30 07:51:00,
2013-05-30 02:56:00,75.2,69.8,29.69,SE,135,7.6,7.6,83,0.00,,,0.00,WUHU216HW,2013-05-30 07:56:00,
2013-05-30 03:01:00,75.2,69.5,29.70,SSE,158,8.5,8.5,82,0.00,,,0.00,WUHU216HW,2013-05-30 08:01:00,
2013-05-30 03:06:00,75.4,69.6,29.70,WSW,248,4.7,8.5,82,0.00,,,0.00,WUHU216HW,2013-05-30 08:06:00,
2013-05-30 03:11:00,75.4,69.6,29.70,ESE,113,5.1,8.5,82,0.00,,,0.00,WUHU216HW,2013-05-30 08:11:00,
2013-05-30 03:16:00,75.4,69.6,29.70,SSE,158,3.1,7.6,82,0.00,,,0.00,WUHU216HW,2013-05-30 08:16:00,
2013-05-30 03:21:00,75.4,69.6,29.70,SE,135,4.3,9.6,82,0.00,,,0.00,WUHU216HW,2013-05-30 08:21:00,
2013-05-30 03:26:00,75.6,69.4,29.69,SE,135,4.7,9.6,81,0.00,,,0.00,WUHU216HW,2013-05-30 08:26:00,
2013-05-30 03:31:00,75.6,69.4,29.69,SSE,158,2.5,4.9,81,0.00,,,0.00,WUHU216HW,2013-05-30 08:31:00,
2013-05-30 03:36:00,75.6,69.4,29.69,SE,135,3.4,6.7,81,0.00,,,0.00,WUHU216HW,2013-05-30 08:36:00,
2013-05-30 03:41:00,75.6,69.4,29.70,SE,135,3.8,8.5,81,0.00,,,0.00,WUHU216HW,2013-05-30 08:41:00,
2013-05-30 03:46:00,75.6,69.4,29.69,SE,135,4.0,8.5,81,0.00,,,0.00,WUHU216HW,2013-05-30 08:46:00,
2013-05-30 03:51:00,75.6,69.4,29.69,South,180,2.5,5.6,81,0.00,,,0.00,WUHU216HW,2013-05-30 08:51:00,
2013-05-30 03:56:00,75.4,69.3,29.70,ESE,113,4.7,4.7,81,0.00,,,0.00,WUHU216HW,2013-05-30 08:56:00,
2013-05-30 04:01:00,75.4,69.6,29.70,SW,225,3.8,4.7,82,0.00,,,0.00,WUHU216HW,2013-05-30 09:01:00,
2013-05-30 04:06:00,75.2,69.5,29.70,ESE,113,3.6,7.6,82,0.00,,,0.00,WUHU216HW,2013-05-30 09:06:00,
2013-05-30 04:11:00,75.2,69.5,29.70,SE,135,6.0,7.6,82,0.00,,,0.00,WUHU216HW,2013-05-30 09:11:00,
2013-05-30 04:16:00,75.2,69.5,29.70,SE,135,4.0,7.2,82,0.00,,,0.00,WUHU216HW,2013-05-30 09:16:00,
2013-05-30 04:21:00,75.2,69.5,29.70,ESE,113,2.9,8.5,82,0.00,,,0.00,WUHU216HW,2013-05-30 09:21:00,
2013-05-30 04:26:00,75.2,69.5,29.70,SE,135,2.9,8.5,82,0.00,,,0.00,WUHU216HW,2013-05-30 09:26:00,
2013-05-30 04:31:00,75.2,69.8,29.70,SE,135,4.7,8.1,83,0.00,,,0.00,WUHU216HW,2013-05-30 09:31:00,
2013-05-30 04:36:00,75.2,69.5,29.70,ESE,113,6.3,8.9,82,0.00,,,0.00,WUHU216HW,2013-05-30 09:36:00,
2013-05-30 04:41:00,75.1,69.6,29.70,ESE,113,7.4,8.9,83,0.00,,,0.00,WUHU216HW,2013-05-30 09:41:00,
2013-05-30 04:46:00,75.1,69.6,29.70,ESE,113,2.5,7.6,83,0.00,,,0.00,WUHU216HW,2013-05-30 09:46:00,
2013-05-30 04:51:00,75.2,69.5,29.70,South,180,3.4,7.6,82,0.00,,,0.00,WUHU216HW,2013-05-30 09:51:00,
2013-05-30 04:56:00,75.2,69.5,29.70,East,90,2.5,8.3,82,0.00,,,0.00,WUHU216HW,2013-05-30 09:56:00,
2013-05-30 05:01:00,75.4,69.6,29.70,SE,135,3.6,8.3,82,0.00,,,0.00,WUHU216HW,2013-05-30 10:01:00,
2013-05-30 05:06:00,75.2,69.5,29.70,SE,135,3.8,8.3,82,0.00,,,0.00,WUHU216HW,2013-05-30 10:06:00,
2013-05-30 05:11:00,75.4,69.6,29.70,SSE,158,3.1,6.9,82,0.00,,,0.00,WUHU216HW,2013-05-30 10:11:00,
2013-05-30 05:16:00,75.4,69.6,29.71,SSE,158,2.9,6.9,82,0.00,,,0.00,WUHU216HW,2013-05-30 10:16:00,
2013-05-30 05:21:00,75.4,69.6,29.71,SE,135,2.7,6.3,82,0.00,,,0.00,WUHU216HW,2013-05-30 10:21:00,
2013-05-30 05:26:00,75.4,69.6,29.71,SSE,158,2.2,7.2,82,0.00,,,0.00,WUHU216HW,2013-05-30 10:26:00,
2013-05-30 05:31:00,75.4,69.6,29.71,SSE,158,2.9,7.6,82,0.00,,,0.00,WUHU216HW,2013-05-30 10:31:00,
2013-05-30 05:36:00,75.4,69.6,29.71,ESE,113,1.8,7.6,82,0.00,,,0.00,WUHU216HW,2013-05-30 10:36:00,
2013-05-30 05:41:00,75.4,69.6,29.71,SSE,158,2.7,6.5,82,0.00,,,0.00,WUHU216HW,2013-05-30 10:41:00,
2013-05-30 05:46:00,75.6,69.8,29.71,ESE,113,7.4,7.4,82,0.00,,,0.00,WUHU216HW,2013-05-30 10:46:00,
2013-05-30 05:51:00,75.6,69.8,29.71,South,180,3.4,7.4,82,0.00,,,0.00,WUHU216HW,2013-05-30 10:51:00,
2013-05-30 05:56:00,75.4,69.6,29.71,ESE,113,4.5,6.3,82,0.00,,,0.00,WUHU216HW,2013-05-30 10:56:00,
2013-05-30 06:01:00,75.2,69.5,29.71,SE,135,6.7,6.7,82,0.00,,,0.00,WUHU216HW,2013-05-30 11:01:00,
2013-05-30 06:06:00,75.1,69.6,29.71,SE,135,4.0,6.7,83,0.00,,,0.00,WUHU216HW,2013-05-30 11:06:00,
2013-05-30 06:11:00,75.1,69.6,29.71,ESE,113,5.8,6.0,83,0.00,,,0.00,WUHU216HW,2013-05-30 11:11:00,
2013-05-30 06:16:00,75.1,69.6,29.72,ESE,113,1.3,6.0,83,0.00,,,0.00,WUHU216HW,2013-05-30 11:16:00,
2013-05-30 06:21:00,75.1,69.6,29.72,SSE,158,1.8,6.5,83,0.00,,,0.00,WUHU216HW,2013-05-30 11:21:00,
2013-05-30 06:26:00,75.1,69.6,29.72,SW,225,3.1,6.5,83,0.00,,,0.00,WUHU216HW,2013-05-30 11:26:00,
2013-05-30 06:31:00,75.2,69.8,29.72,SSW,203,1.8,5.1,83,0.00,,,0.00,WUHU216HW,2013-05-30 11:31:00,
2013-05-30 06:36:00,75.2,69.8,29.72,SSW,203,5.4,5.4,83,0.00,,,0.00,WUHU216HW,2013-05-30 11:36:00,
2013-05-30 06:41:00,75.4,69.9,29.73,SSE,158,3.4,5.4,83,0.00,,,0.00,WUHU216HW,2013-05-30 11:41:00,
2013-05-30 06:47:00,75.6,70.1,29.73,SE,135,2.0,4.7,83,0.00,,,0.00,WUHU216HW,2013-05-30 11:47:00,
2013-05-30 06:52:00,75.4,69.9,29.73,South,180,1.8,5.1,83,0.00,,,0.00,WUHU216HW,2013-05-30 11:52:00,
2013-05-30 06:57:00,75.4,70.3,29.72,ESE,113,2.2,5.1,84,0.00,,,0.00,WUHU216HW,2013-05-30 11:57:00,
2013-05-30 07:02:00,75.4,70.3,29.73,SSE,158,2.7,3.8,84,0.00,,,0.00,WUHU216HW,2013-05-30 12:02:00,
2013-05-30 07:07:00,75.4,70.3,29.73,South,180,4.7,4.7,84,0.00,,,0.00,WUHU216HW,2013-05-30 12:07:00,
2013-05-30 07:12:00,75.6,70.5,29.73,SE,135,2.7,4.7,84,0.00,,,0.00,WUHU216HW,2013-05-30 12:12:00,
2013-05-30 07:17:00,75.8,70.3,29.73,SW,225,2.7,10.3,83,0.00,,,0.00,WUHU216HW,2013-05-30 12:17:00,
2013-05-30 07:22:00,75.8,70.7,29.73,SE,135,3.4,10.3,84,0.00,,,0.00,WUHU216HW,2013-05-30 12:22:00,
2013-05-30 07:27:00,76.0,70.8,29.72,SW,225,1.3,4.5,84,0.00,,,0.00,WUHU216HW,2013-05-30 12:27:00,
2013-05-30 07:32:00,76.0,70.5,29.73,SSE,158,2.2,4.5,83,0.00,,,0.00,WUHU216HW,2013-05-30 12:32:00,
2013-05-30 07:37:00,76.0,70.8,29.73,ESE,113,2.0,4.5,84,0.00,,,0.00,WUHU216HW,2013-05-30 12:37:00,
2013-05-30 07:42:00,76.0,70.8,29.74,SSE,158,1.6,2.9,84,0.00,,,0.00,WUHU216HW,2013-05-30 12:42:00,
2013-05-30 07:47:00,76.0,70.8,29.73,ESE,113,3.8,3.8,84,0.00,,,0.00,WUHU216HW,2013-05-30 12:47:00,
2013-05-30 07:52:00,76.0,70.8,29.74,SSE,158,1.3,4.0,84,0.00,,,0.00,WUHU216HW,2013-05-30 12:52:00,
2013-05-30 07:57:00,76.0,70.8,29.73,South,180,3.8,4.0,84,0.00,,,0.00,WUHU216HW,2013-05-30 12:57:00,
2013-05-30 08:02:00,76.1,71.0,29.73,ESE,113,2.5,8.5,84,0.00,,,0.00,WUHU216HW,2013-05-30 13:02:00,
2013-05-30 08:07:00,76.3,70.8,29.73,SSW,203,1.8,8.5,83,0.00,,,0.00,WUHU216HW,2013-05-30 13:07:00,
2013-05-30 08:12:00,76.7,71.1,29.73,South,180,4.7,7.4,83,0.00,,,0.00,WUHU216HW,2013-05-30 13:12:00,
2013-05-30 08:17:00,77.0,71.1,29.74,ESE,113,4.0,8.9,82,0.00,,,0.00,WUHU216HW,2013-05-30 13:17:00,
2013-05-30 08:22:00,76.7,71.1,29.74,WSW,248,1.8,8.9,83,0.00,,,0.00,WUHU216HW,2013-05-30 13:22:00,
2013-05-30 08:27:00,76.7,71.1,29.74,SE,135,3.1,6.5,83,0.00,,,0.00,WUHU216HW,2013-05-30 13:27:00,
2013-05-30 08:32:00,76.7,71.1,29.74,SE,135,8.5,8.5,83,0.00,,,0.00,WUHU216HW,2013-05-30 13:32:00,
2013-05-30 08:37:00,76.7,71.1,29.74,SE,135,2.5,8.5,83,0.00,,,0.00,WUHU216HW,2013-05-30 13:37:00,
2013-05-30 08:42:00,77.0,71.5,29.74,ESE,113,3.8,6.9,83,0.00,,,0.00,WUHU216HW,2013-05-30 13:42:00,
2013-05-30 08:47:00,77.4,71.5,29.74,SSE,158,5.6,5.6,82,0.00,,,0.00,WUHU216HW,2013-05-30 13:47:00,
2013-05-30 08:52:00,77.8,71.8,29.74,SSE,158,4.7,5.6,82,0.00,,,0.00,WUHU216HW,2013-05-30 13:52:00,
2013-05-30 08:57:00,78.3,72.0,29.74,SSW,203,3.4,5.4,81,0.00,,,0.00,WUHU216HW,2013-05-30 13:57:00,
2013-05-30 09:02:00,78.7,71.7,29.74,SSE,158,10.5,10.5,79,0.00,,,0.00,WUHU216HW,2013-05-30 14:02:00,
2013-05-30 09:07:00,78.5,71.8,29.73,East,90,3.4,12.1,80,0.00,,,0.00,WUHU216HW,2013-05-30 14:07:00,
2013-05-30 09:12:00,79.2,72.2,29.73,SE,135,7.6,12.1,79,0.00,,,0.00,WUHU216HW,2013-05-30 14:12:00,
2013-05-30 09:17:00,79.4,72.4,29.73,SSE,158,2.0,9.6,79,0.00,,,0.00,WUHU216HW,2013-05-30 14:17:00,
2013-05-30 09:22:00,78.8,71.4,29.72,SSE,158,3.4,11.2,78,0.00,,,0.00,WUHU216HW,2013-05-30 14:22:00,
2013-05-30 09:27:00,78.5,71.5,29.72,South,180,2.5,11.2,79,0.00,,,0.00,WUHU216HW,2013-05-30 14:27:00,
2013-05-30 09:32:00,78.1,70.7,29.72,SSE,158,3.4,9.2,78,0.00,,,0.00,WUHU216HW,2013-05-30 14:32:00,
2013-05-30 09:37:00,77.9,70.9,29.72,SE,135,3.6,9.2,79,0.00,,,0.00,WUHU216HW,2013-05-30 14:37:00,
2013-05-30 09:42:00,78.1,71.1,29.72,SE,135,5.8,7.6,79,0.00,,,0.00,WUHU216HW,2013-05-30 14:42:00,
2013-05-30 09:47:00,78.1,71.1,29.72,ESE,113,6.0,11.0,79,0.00,,,0.00,WUHU216HW,2013-05-30 14:47:00,
2013-05-30 09:52:00,78.3,71.3,29.72,SSE,158,3.1,11.0,79,0.00,,,0.00,WUHU216HW,2013-05-30 14:52:00,
2013-05-30 09:57:00,78.7,71.7,29.72,South,180,6.3,9.2,79,0.00,,,0.00,WUHU216HW,2013-05-30 14:57:00,
2013-05-30 10:02:00,79.0,71.6,29.72,South,180,4.3,7.6,78,0.00,,,0.00,WUHU216HW,2013-05-30 15:02:00,
2013-05-30 10:07:00,79.6,71.7,29.73,SSW,203,2.5,7.6,77,0.00,,,0.00,WUHU216HW,2013-05-30 15:07:00,
2013-05-30 10:12:00,79.6,71.7,29.73,South,180,4.9,5.1,77,0.00,,,0.00,WUHU216HW,2013-05-30 15:12:00,
2013-05-30 10:23:00,80.6,72.0,29.73,ESE,113,6.0,6.0,75,0.00,,,0.00,WUHU216HW,2013-05-30 15:23:00,
2013-05-30 10:28:00,80.6,72.0,29.73,SSW,203,4.5,6.3,75,0.00,,,0.00,WUHU216HW,2013-05-30 15:28:00,
2013-05-30 10:33:00,80.3,71.6,29.73,SSE,158,2.5,6.3,75,0.00,,,0.00,WUHU216HW,2013-05-30 15:33:00,
2013-05-30 10:38:00,80.6,72.0,29.73,South,180,1.8,5.1,75,0.00,,,0.00,WUHU216HW,2013-05-30 15:38:00,
2013-05-30 10:43:00,80.6,72.0,29.73,SSW,203,1.8,7.2,75,0.00,,,0.00,WUHU216HW,2013-05-30 15:43:00,
2013-05-30 10:48:00,81.2,72.1,29.73,South,180,3.4,7.2,74,0.00,,,0.00,WUHU216HW,2013-05-30 15:48:00,
2013-05-30 10:53:00,81.5,72.5,29.73,SE,135,3.1,5.1,74,0.00,,,0.00,WUHU216HW,2013-05-30 15:53:00,
2013-05-30 10:58:00,82.1,73.4,29.73,SSW,203,1.3,6.3,75,0.00,,,0.00,WUHU216HW,2013-05-30 15:58:00,
2013-05-30 11:03:00,82.6,73.1,29.73,SW,225,4.0,6.3,73,0.00,,,0.00,WUHU216HW,2013-05-30 16:03:00,
2013-05-30 11:08:00,82.8,73.3,29.73,SSW,203,1.3,5.4,73,0.00,,,0.00,WUHU216HW,2013-05-30 16:08:00,
2013-05-30 11:13:00,83.3,73.4,29.73,SW,225,4.0,5.8,72,0.00,,,0.00,WUHU216HW,2013-05-30 16:13:00,
2013-05-30 11:18:00,83.5,73.1,29.73,SSW,203,3.4,5.8,71,0.00,,,0.00,WUHU216HW,2013-05-30 16:18:00,
2013-05-30 11:23:00,83.2,73.2,29.73,SSE,158,2.0,4.9,72,0.00,,,0.00,WUHU216HW,2013-05-30 16:23:00,
2013-05-30 11:28:00,83.3,72.9,29.73,SSW,203,4.5,7.6,71,0.00,,,0.00,WUHU216HW,2013-05-30 16:28:00,
2013-05-30 11:33:00,83.5,72.7,29.74,SSE,158,1.6,7.6,70,0.00,,,0.00,WUHU216HW,2013-05-30 16:33:00,
2013-05-30 11:38:00,83.7,73.3,29.74,South,180,3.6,6.9,71,0.00,,,0.00,WUHU216HW,2013-05-30 16:38:00,
2013-05-30 11:43:00,83.7,73.3,29.74,SSE,158,3.4,6.9,71,0.00,,,0.00,WUHU216HW,2013-05-30 16:43:00,
2013-05-30 11:48:00,83.9,73.1,29.74,SSE,158,6.7,7.4,70,0.00,,,0.00,WUHU216HW,2013-05-30 16:48:00,
2013-05-30 11:53:00,83.9,73.1,29.73,South,180,2.9,7.4,70,0.00,,,0.00,WUHU216HW,2013-05-30 16:53:00,
2013-05-30 11:58:00,84.2,73.0,29.73,ESE,113,7.8,10.7,69,0.00,,,0.00,WUHU216HW,2013-05-30 16:58:00,
2013-05-30 12:03:00,84.6,72.9,29.73,ESE,113,9.8,10.7,68,0.00,,,0.00,WUHU216HW,2013-05-30 17:03:00,
2013-05-30 12:08:00,85.0,73.3,29.73,SE,135,3.4,9.8,68,0.00,,,0.00,WUHU216HW,2013-05-30 17:08:00,
2013-05-30 12:13:00,85.1,73.0,29.73,SSW,203,4.3,5.4,67,0.00,,,0.00,WUHU216HW,2013-05-30 17:13:00,
2013-05-30 12:18:00,84.6,72.5,29.73,SE,135,8.3,8.3,67,0.00,,,0.00,WUHU216HW,2013-05-30 17:18:00,
2013-05-30 12:23:00,84.2,72.5,29.73,SSW,203,2.2,8.3,68,0.00,,,0.00,WUHU216HW,2013-05-30 17:23:00,
2013-05-30 12:28:00,84.2,72.5,29.73,SSE,158,2.9,5.6,68,0.00,,,0.00,WUHU216HW,2013-05-30 17:28:00,
2013-05-30 12:33:00,84.1,72.4,29.73,SSW,203,2.2,3.8,68,0.00,,,0.00,WUHU216HW,2013-05-30 17:33:00,
2013-05-30 12:38:00,83.9,72.6,29.73,SSW,203,3.4,3.4,69,0.00,,,0.00,WUHU216HW,2013-05-30 17:38:00,
2013-05-30 12:43:00,84.2,73.4,29.72,South,180,7.2,7.2,70,0.00,,,0.00,WUHU216HW,2013-05-30 17:43:00,
2013-05-30 12:48:00,84.4,72.3,29.72,SSE,158,3.6,9.2,67,0.00,,,0.00,WUHU216HW,2013-05-30 17:48:00,
2013-05-30 12:53:00,84.2,72.5,29.73,South,180,1.6,9.2,68,0.00,,,0.00,WUHU216HW,2013-05-30 17:53:00,
2013-05-30 12:58:00,83.9,72.2,29.73,South,180,2.9,6.9,68,0.00,,,0.00,WUHU216HW,2013-05-30 17:58:00,
2013-05-30 13:03:00,83.5,72.7,29.73,SE,135,2.7,2.9,70,0.00,,,0.00,WUHU216HW,2013-05-30 18:03:00,
2013-05-30 13:08:00,83.2,72.8,29.73,South,180,3.1,4.9,71,0.00,,,0.00,WUHU216HW,2013-05-30 18:08:00,
2013-05-30 13:13:00,83.0,72.6,29.72,NW,315,1.1,5.1,71,0.00,,,0.00,WUHU216HW,2013-05-30 18:13:00,
2013-05-30 13:18:00,83.0,72.2,29.72,SW,225,4.3,5.1,70,0.00,,,0.00,WUHU216HW,2013-05-30 18:18:00,
2013-05-30 13:23:00,83.0,71.7,29.72,South,180,3.4,4.3,69,0.00,,,0.00,WUHU216HW,2013-05-30 18:23:00,
2013-05-30 13:28:00,83.2,72.4,29.72,NW,315,1.3,3.6,70,0.00,,,0.00,WUHU216HW,2013-05-30 18:28:00,
2013-05-30 13:33:00,82.8,72.5,29.72,ENE,68,3.4,3.4,71,0.00,,,0.00,WUHU216HW,2013-05-30 18:33:00,
2013-05-30 13:38:00,83.2,72.8,29.72,SSE,158,4.7,5.4,71,0.00,,,0.00,WUHU216HW,2013-05-30 18:38:00,
2013-05-30 13:43:00,83.3,72.5,29.72,SSE,158,1.8,5.6,70,0.00,,,0.00,WUHU216HW,2013-05-30 18:43:00,
2013-05-30 13:48:00,83.2,72.8,29.72,SE,135,3.1,5.6,71,0.00,,,0.00,WUHU216HW,2013-05-30 18:48:00,
2013-05-30 13:53:00,83.0,73.0,29.71,SE,135,3.4,6.9,72,0.00,,,0.00,WUHU216HW,2013-05-30 18:53:00,
2013-05-30 13:58:00,83.0,72.6,29.71,SE,135,5.4,6.9,71,0.00,,,0.00,WUHU216HW,2013-05-30 18:58:00,
2013-05-30 14:03:00,83.2,73.2,29.71,SE,135,3.8,7.2,72,0.00,,,0.00,WUHU216HW,2013-05-30 19:03:00,
2013-05-30 14:08:00,83.2,73.2,29.71,ESE,113,1.1,7.2,72,0.00,,,0.00,WUHU216HW,2013-05-30 19:08:00,
2013-05-30 14:13:00,83.0,72.6,29.71,SSE,158,2.5,7.2,71,0.00,,,0.00,WUHU216HW,2013-05-30 19:13:00,
2013-05-30 14:18:00,82.8,72.8,29.70,SSE,158,2.7,7.2,72,0.00,,,0.00,WUHU216HW,2013-05-30 19:18:00,
2013-05-30 14:23:00,83.0,73.0,29.70,SE,135,2.5,3.4,72,0.00,,,0.00,WUHU216HW,2013-05-30 19:23:00,
2013-05-30 14:28:00,83.5,73.5,29.70,South,180,0.9,3.6,72,0.00,,,0.00,WUHU216HW,2013-05-30 19:28:00,
2013-05-30 14:33:00,83.9,73.4,29.69,SW,225,2.7,4.0,71,0.00,,,0.00,WUHU216HW,2013-05-30 19:33:00,
2013-05-30 14:38:00,84.1,73.6,29.70,SSW,203,3.4,6.9,71,0.00,,,0.00,WUHU216HW,2013-05-30 19:38:00,
2013-05-30 14:43:00,83.9,73.4,29.69,SE,135,1.1,6.9,71,0.00,,,0.00,WUHU216HW,2013-05-30 19:43:00,
2013-05-30 14:48:00,83.9,73.4,29.69,SE,135,3.4,6.7,71,0.00,,,0.00,WUHU216HW,2013-05-30 19:48:00,
2013-05-30 14:53:00,83.7,73.7,29.69,SSW,203,1.8,6.7,72,0.00,,,0.00,WUHU216HW,2013-05-30 19:53:00,
2013-05-30 14:58:00,83.7,73.3,29.69,SE,135,2.5,6.3,71,0.00,,,0.00,WUHU216HW,2013-05-30 19:58:00,
2013-05-30 15:03:00,83.7,73.3,29.69,SSE,158,1.1,4.5,71,0.00,,,0.00,WUHU216HW,2013-05-30 20:03:00,
2013-05-30 15:08:00,83.7,73.3,29.68,ESE,113,4.0,4.0,71,0.00,,,0.00,WUHU216HW,2013-05-30 20:08:00,
2013-05-30 15:13:00,83.9,73.4,29.68,SSE,158,3.6,6.7,71,0.00,,,0.00,WUHU216HW,2013-05-30 20:13:00,
2013-05-30 15:18:00,83.9,73.1,29.68,SSE,158,4.0,6.7,70,0.00,,,0.00,WUHU216HW,2013-05-30 20:18:00,
2013-05-30 15:23:00,84.4,73.6,29.68,SE,135,1.8,5.4,70,0.00,,,0.00,WUHU216HW,2013-05-30 20:23:00,
2013-05-30 15:28:00,84.4,73.2,29.68,SE,135,1.6,5.4,69,0.00,,,0.00,WUHU216HW,2013-05-30 20:28:00,
2013-05-30 15:33:00,84.2,73.0,29.67,SSE,158,2.9,4.7,69,0.00,,,0.00,WUHU216HW,2013-05-30 20:33:00,
2013-05-30 15:38:00,84.2,73.4,29.67,SSW,203,1.8,5.6,70,0.00,,,0.00,WUHU216HW,2013-05-30 20:38:00,
2013-05-30 15:43:00,83.5,74.4,29.67,SW,225,1.1,5.6,74,0.00,,,0.00,WUHU216HW,2013-05-30 20:43:00,
2013-05-30 15:48:00,83.7,74.1,29.67,SE,135,2.9,6.0,73,0.00,,,0.00,WUHU216HW,2013-05-30 20:48:00,
2013-05-30 15:53:00,85.0,74.2,29.67,SE,135,3.6,6.0,70,0.00,,,0.00,WUHU216HW,2013-05-30 20:53:00,
2013-05-30 15:58:00,85.3,73.6,29.67,South,180,5.4,5.4,68,0.00,,,0.00,WUHU216HW,2013-05-30 20:58:00,
2013-05-30 16:03:00,85.1,73.5,29.67,SE,135,1.3,5.4,68,0.00,,,0.00,WUHU216HW,2013-05-30 21:03:00,
2013-05-30 16:08:00,85.0,73.7,29.67,SSW,203,2.2,5.1,69,0.00,,,0.00,WUHU216HW,2013-05-30 21:08:00,
2013-05-30 16:13:00,85.0,73.7,29.67,South,180,2.0,5.6,69,0.00,,,0.00,WUHU216HW,2013-05-30 21:13:00,
2013-05-30 16:18:00,85.0,73.7,29.67,SSE,158,2.0,5.6,69,0.00,,,0.00,WUHU216HW,2013-05-30 21:18:00,
2013-05-30 16:23:00,85.1,74.3,29.67,South,180,2.2,7.2,70,0.00,,,0.00,WUHU216HW,2013-05-30 21:23:00,
2013-05-30 16:28:00,85.9,74.6,29.66,SSE,158,4.3,7.2,69,0.00,,,0.00,WUHU216HW,2013-05-30 21:28:00,
2013-05-30 16:33:00,86.4,74.2,29.66,South,180,1.8,4.3,67,0.00,,,0.00,WUHU216HW,2013-05-30 21:33:00,
2013-05-30 16:38:00,86.0,73.8,29.66,SSW,203,3.1,5.4,67,0.00,,,0.00,WUHU216HW,2013-05-30 21:38:00,
2013-05-30 16:43:00,86.4,75.1,29.65,SSW,203,2.5,5.4,69,0.00,,,0.00,WUHU216HW,2013-05-30 21:43:00,
2013-05-30 16:48:00,87.1,74.3,29.65,ENE,68,0.7,3.4,66,0.00,,,0.00,WUHU216HW,2013-05-30 21:48:00,
2013-05-30 16:53:00,87.3,73.6,29.65,South,180,2.5,5.4,64,0.00,,,0.00,WUHU216HW,2013-05-30 21:53:00,
2013-05-30 16:58:00,86.9,73.8,29.65,South,180,2.5,5.4,65,0.00,,,0.00,WUHU216HW,2013-05-30 21:58:00,
2013-05-30 17:03:00,87.1,73.9,29.65,SSW,203,4.0,4.5,65,0.00,,,0.00,WUHU216HW,2013-05-30 22:03:00,
2013-05-30 17:08:00,86.4,73.3,29.64,SSE,158,5.1,5.1,65,0.00,,,0.00,WUHU216HW,2013-05-30 22:08:00,
2013-05-30 17:13:00,87.1,73.4,29.64,SE,135,3.1,5.1,64,0.00,,,0.00,WUHU216HW,2013-05-30 22:13:00,
2013-05-30 17:18:00,86.8,74.1,29.64,SE,135,5.6,5.6,66,0.00,,,0.00,WUHU216HW,2013-05-30 22:18:00,
2013-05-30 17:23:00,86.4,73.7,29.64,SSE,158,1.6,5.6,66,0.00,,,0.00,WUHU216HW,2013-05-30 22:23:00,
2013-05-30 17:28:00,86.2,73.5,29.64,SE,135,3.4,5.6,66,0.00,,,0.00,WUHU216HW,2013-05-30 22:28:00,
2013-05-30 17:33:00,85.9,73.2,29.65,SE,135,2.2,5.6,66,0.00,,,0.00,WUHU216HW,2013-05-30 22:33:00,
2013-05-30 17:38:00,86.0,73.4,29.64,SW,225,1.3,4.3,66,0.00,,,0.00,WUHU216HW,2013-05-30 22:38:00,
2013-05-30 17:43:00,86.4,73.7,29.64,SE,135,3.4,3.4,66,0.00,,,0.00,WUHU216HW,2013-05-30 22:43:00,
2013-05-30 17:48:00,86.4,74.2,29.64,SE,135,1.1,3.4,67,0.00,,,0.00,WUHU216HW,2013-05-30 22:48:00,
2013-05-30 17:53:00,86.0,73.8,29.64,SE,135,1.1,3.4,67,0.00,,,0.00,WUHU216HW,2013-05-30 22:53:00,
2013-05-30 17:58:00,86.6,74.4,29.64,SE,135,4.0,4.0,67,0.00,,,0.00,WUHU216HW,2013-05-30 22:58:00,
2013-05-30 18:03:00,86.8,73.6,29.64,SW,225,3.4,4.0,65,0.00,,,0.00,WUHU216HW,2013-05-30 23:03:00,
2013-05-30 18:08:00,86.9,73.8,29.64,SSW,203,2.7,4.7,65,0.00,,,0.00,WUHU216HW,2013-05-30 23:08:00,
2013-05-30 18:13:00,86.6,73.9,29.64,ESE,113,3.4,4.7,66,0.00,,,0.00,WUHU216HW,2013-05-30 23:13:00,
2013-05-30 18:18:00,86.2,73.5,29.64,SSE,158,5.1,5.4,66,0.00,,,0.00,WUHU216HW,2013-05-30 23:18:00,
2013-05-30 18:23:00,86.8,73.6,29.64,South,180,1.6,6.3,65,0.00,,,0.00,WUHU216HW,2013-05-30 23:23:00,
2013-05-30 18:28:00,87.1,74.3,29.63,South,180,2.0,6.3,66,0.00,,,0.00,WUHU216HW,2013-05-30 23:28:00,
2013-05-30 18:33:00,86.9,73.8,29.63,ESE,113,1.8,2.0,65,0.00,,,0.00,WUHU216HW,2013-05-30 23:33:00,
2013-05-30 18:38:00,86.8,73.1,29.63,SSE,158,2.7,3.1,64,0.00,,,0.00,WUHU216HW,2013-05-30 23:38:00,
2013-05-30 18:43:00,86.6,73.5,29.64,ESE,113,5.1,5.1,65,0.00,,,0.00,WUHU216HW,2013-05-30 23:43:00,
2013-05-30 18:48:00,86.8,73.6,29.64,SW,225,2.0,5.1,65,0.00,,,0.00,WUHU216HW,2013-05-30 23:48:00,
2013-05-30 18:53:00,86.8,74.1,29.64,SSE,158,2.5,3.6,66,0.00,,,0.00,WUHU216HW,2013-05-30 23:53:00,
2013-05-30 18:58:00,86.4,73.7,29.64,South,180,1.8,5.8,66,0.00,,,0.00,WUHU216HW,2013-05-30 23:58:00,
2013-05-30 19:03:00,85.9,73.6,29.64,SE,135,1.8,5.8,67,0.00,,,0.00,WUHU216HW,2013-05-31 00:03:00,
2013-05-30 19:08:00,85.7,73.5,29.65,South,180,3.8,3.8,67,0.00,,,0.00,WUHU216HW,2013-05-31 00:08:00,
2013-05-30 19:13:00,85.9,73.6,29.65,South,180,2.5,3.8,67,0.00,,,0.00,WUHU216HW,2013-05-31 00:13:00,
2013-05-30 19:18:00,85.7,73.5,29.66,SE,135,2.5,5.4,67,0.00,,,0.00,WUHU216HW,2013-05-31 00:18:00,
2013-05-30 19:23:00,85.3,73.2,29.65,SSE,158,5.6,5.6,67,0.00,,,0.00,WUHU216HW,2013-05-31 00:23:00,
2013-05-30 19:28:00,85.0,72.8,29.66,SE,135,4.0,5.6,67,0.00,,,0.00,WUHU216HW,2013-05-31 00:28:00,
2013-05-30 19:33:00,85.0,72.8,29.66,ESE,113,4.5,4.5,67,0.00,,,0.00,WUHU216HW,2013-05-31 00:33:00,
2013-05-30 19:38:00,85.0,73.7,29.66,SE,135,0.4,4.5,69,0.00,,,0.00,WUHU216HW,2013-05-31 00:38:00,
2013-05-30 19:44:00,84.8,73.1,29.66,SE,135,2.7,3.1,68,0.00,,,0.00,WUHU216HW,2013-05-31 00:44:00,
2013-05-30 19:49:00,84.6,73.4,29.66,South,180,2.5,5.6,69,0.00,,,0.00,WUHU216HW,2013-05-31 00:49:00,
2013-05-30 19:54:00,84.4,72.7,29.66,SE,135,2.5,5.6,68,0.00,,,0.00,WUHU216HW,2013-05-31 00:54:00,
2013-05-30 19:59:00,84.4,72.7,29.67,East,90,2.7,6.3,68,0.00,,,0.00,WUHU216HW,2013-05-31 00:59:00,
2013-05-30 20:04:00,84.2,72.5,29.67,SSE,158,1.8,6.3,68,0.00,,,0.00,WUHU216HW,2013-05-31 01:04:00,
2013-05-30 20:08:00,83.9,72.6,29.67,ESE,113,1.8,5.8,69,0.00,,,0.00,WUHU216HW,2013-05-31 01:08:00,
2013-05-30 20:13:00,83.7,72.9,29.67,SE,135,2.0,4.5,70,0.00,,,0.00,WUHU216HW,2013-05-31 01:13:00,
2013-05-30 20:18:00,83.5,72.7,29.67,ESE,113,4.3,4.7,70,0.00,,,0.00,WUHU216HW,2013-05-31 01:18:00,
2013-05-30 20:23:00,83.3,72.5,29.67,SE,135,2.9,4.9,70,0.00,,,0.00,WUHU216HW,2013-05-31 01:23:00,
2013-05-30 20:28:00,83.2,72.4,29.67,SE,135,1.6,4.9,70,0.00,,,0.00,WUHU216HW,2013-05-31 01:28:00,
2013-05-30 20:33:00,83.0,72.6,29.67,SSW,203,2.7,4.9,71,0.00,,,0.00,WUHU216HW,2013-05-31 01:33:00,
2013-05-30 20:38:00,82.8,72.8,29.67,SE,135,4.7,4.9,72,0.00,,,0.00,WUHU216HW,2013-05-31 01:38:00,
2013-05-30 20:43:00,82.6,72.6,29.67,SE,135,4.3,4.7,72,0.00,,,0.00,WUHU216HW,2013-05-31 01:43:00,
2013-05-30 20:48:00,82.4,72.5,29.67,SSE,158,4.0,4.3,72,0.00,,,0.00,WUHU216HW,2013-05-31 01:48:00,
2013-05-30 20:53:00,82.3,72.3,29.66,SSE,158,3.8,4.3,72,0.00,,,0.00,WUHU216HW,2013-05-31 01:53:00,
2013-05-30 20:58:00,82.1,72.2,29.67,ESE,113,5.4,5.4,72,0.00,,,0.00,WUHU216HW,2013-05-31 01:58:00,
2013-05-30 21:03:00,82.1,72.5,29.67,ESE,113,4.3,5.4,73,0.00,,,0.00,WUHU216HW,2013-05-31 02:03:00,
2013-05-30 21:08:00,81.9,72.0,29.66,SE,135,3.8,5.4,72,0.00,,,0.00,WUHU216HW,2013-05-31 02:08:00,
2013-05-30 21:13:00,81.7,72.2,29.66,SE,135,4.0,6.0,73,0.00,,,0.00,WUHU216HW,2013-05-31 02:13:00,
2013-05-30 21:18:00,81.7,72.2,29.66,ESE,113,4.7,6.0,73,0.00,,,0.00,WUHU216HW,2013-05-31 02:18:00,
2013-05-30 21:23:00,81.7,72.2,29.66,East,90,6.9,6.9,73,0.00,,,0.00,WUHU216HW,2013-05-31 02:23:00,
2013-05-30 21:28:00,81.7,72.2,29.66,ESE,113,4.3,7.6,73,0.00,,,0.00,WUHU216HW,2013-05-31 02:28:00,
2013-05-30 21:33:00,81.7,72.2,29.67,South,180,3.8,7.8,73,0.00,,,0.00,WUHU216HW,2013-05-31 02:33:00,
2013-05-30 21:41:00,81.7,72.6,29.67,ESE,113,3.6,7.6,74,0.00,,,0.00,WUHU216HW,2013-05-31 02:41:00,
2013-05-30 21:46:00,81.7,72.6,29.67,SE,135,5.1,7.6,74,0.00,,,0.00,WUHU216HW,2013-05-31 02:46:00,
2013-05-30 21:51:00,81.7,72.6,29.68,ESE,113,11.4,11.4,74,0.00,,,0.00,WUHU216HW,2013-05-31 02:51:00,
2013-05-30 21:56:00,81.7,72.6,29.67,South,180,3.1,11.4,74,0.00,,,0.00,WUHU216HW,2013-05-31 02:56:00,
2013-05-30 22:01:00,81.7,72.6,29.67,SSE,158,5.8,8.3,74,0.00,,,0.00,WUHU216HW,2013-05-31 03:01:00,
2013-05-30 22:06:00,81.9,72.4,29.68,ESE,113,7.4,13.6,73,0.00,,,0.00,WUHU216HW,2013-05-31 03:06:00,
2013-05-30 22:11:00,81.9,72.8,29.68,ESE,113,3.4,13.6,74,0.00,,,0.00,WUHU216HW,2013-05-31 03:11:00,
2013-05-30 22:16:00,81.7,72.6,29.69,SSW,203,3.4,6.9,74,0.00,,,0.00,WUHU216HW,2013-05-31 03:16:00,
2013-05-30 22:21:00,81.7,72.6,29.69,SSE,158,4.9,5.6,74,0.00,,,0.00,WUHU216HW,2013-05-31 03:21:00,
2013-05-30 22:26:00,81.5,72.5,29.70,ESE,113,6.3,10.1,74,0.00,,,0.00,WUHU216HW,2013-05-31 03:26:00,
2013-05-30 22:31:00,81.5,72.5,29.70,SE,135,5.1,10.1,74,0.00,,,0.00,WUHU216HW,2013-05-31 03:31:00,
2013-05-30 22:36:00,81.5,72.5,29.71,South,180,4.5,9.4,74,0.00,,,0.00,WUHU216HW,2013-05-31 03:36:00,
2013-05-30 22:41:00,81.4,72.3,29.71,SSE,158,1.8,6.3,74,0.00,,,0.00,WUHU216HW,2013-05-31 03:41:00,
2013-05-30 22:46:00,81.4,72.7,29.72,SE,135,4.5,6.3,75,0.00,,,0.00,WUHU216HW,2013-05-31 03:46:00,
2013-05-30 22:51:00,81.2,72.6,29.72,SE,135,3.1,8.3,75,0.00,,,0.00,WUHU216HW,2013-05-31 03:51:00,
2013-05-30 22:56:00,81.0,72.4,29.72,ESE,113,5.8,8.3,75,0.00,,,0.00,WUHU216HW,2013-05-31 03:56:00,
2013-05-30 23:01:00,81.0,72.4,29.73,SE,135,6.9,10.1,75,0.00,,,0.00,WUHU216HW,2013-05-31 04:01:00,
2013-05-30 23:06:00,81.0,72.4,29.73,ESE,113,8.5,11.6,75,0.00,,,0.00,WUHU216HW,2013-05-31 04:06:00,
2013-05-30 23:11:00,81.0,72.4,29.73,ESE,113,4.7,11.6,75,0.00,,,0.00,WUHU216HW,2013-05-31 04:11:00,
2013-05-30 23:16:00,80.8,72.5,29.72,SSE,158,5.4,6.3,76,0.00,,,0.00,WUHU216HW,2013-05-31 04:16:00,
2013-05-30 23:21:00,80.6,72.4,29.72,ESE,113,7.6,7.6,76,0.00,,,0.00,WUHU216HW,2013-05-31 04:21:00,
2013-05-30 23:26:00,80.3,72.5,29.72,SE,135,4.3,7.6,77,0.00,,,0.00,WUHU216HW,2013-05-31 04:26:00,
2013-05-30 23:31:00,80.1,72.3,29.73,SE,135,3.8,7.2,77,0.00,,,0.00,WUHU216HW,2013-05-31 04:31:00,
2013-05-30 23:36:00,79.9,72.5,29.72,SE,135,3.4,8.5,78,0.00,,,0.00,WUHU216HW,2013-05-31 04:36:00,
2013-05-30 23:41:00,79.9,72.5,29.72,ESE,113,10.1,10.1,78,0.00,,,0.00,WUHU216HW,2013-05-31 04:41:00,
2013-05-30 23:46:00,79.7,72.3,29.72,East,90,9.2,10.1,78,0.00,,,0.00,WUHU216HW,2013-05-31 04:46:00,
2013-05-30 23:51:00,79.9,72.5,29.72,SSW,203,5.4,9.8,78,0.00,,,0.00,WUHU216HW,2013-05-31 04:51:00,
2013-05-30 23:56:00,79.9,72.5,29.72,South,180,3.8,9.8,78,0.00,,,0.00,WUHU216HW,2013-05-31 04:56:00,